Volver al catálogo

CZ-4B R/B

ActivoSSO
NORAD 32063·ROCKET BODY·🇨🇳 China

Lanzado Sep 19, 2007 desde Taiyuan Satellite Launch Center

Loading…

Próximos Pases (próximas 24 horas)

TLE

ActualizadoSource: Space-Track

Época: Sep 14, 2026, 07:51 UTC

1 32063U 07042B   26257.32732994  .00000135  00000-0  43757-4 0  9997
2 32063  98.2180 199.9982 0053844 206.3733 313.5768 14.52488792  4972

Sigue CZ-4B R/B en tiempo real con AllMySat

Download on the App Store